Location: Dimsdale
(55.1333°N, 118.9833°W)
Time: 13:45:49
(UTC+00:00)

SO-50 - Pass Details

Date: 11 December 2023
Orbit: 607 x 661 km, 64.6° (Epoch: 21 February)

Event Time Altitude Azimuth Distance (km) Brightness Sun altitude
Exits shadow 13:38:28 25° 343° (NNW) 1,299 ? -20.2°
Maximum altitude 13:39:01 26° 355° (N) 1,278 ? -20.1°
Drops below altitude 10° 13:42:52 10° 52° (NE) 2,023 ? -19.6°
Sets 13:45:28 0° 65° (ENE) 2,920 ? -19.2°
